Starlink 6055

operational
NORAD ID: 56467 Int'l Des: 2023-064 Owner: SPXS Country: US Constellation: starlink
LEOCIRCULAR

关于 Starlink 6055

正在加载描述...

实时位置

正在加载3D地球...

即将过境

高度历史

Altitude vs Time

uPlot chart will show altitude changes over time

两行轨道根数

1 56467U 23064V 26035.82644923 -.00003451 00000-0 -28146-3 0 9996
2 56467 69.9989 207.4371 0003273 265.9436 94.1349 14.98348028150816
Epoch: Feb 4, 2026 • Age: 6 hours

当前状态

高度 588.8 km
速度 7.57 km/s
星下点 -49.28°S, 16.6°E
发射日期 May 10, 2023
运行时间 2.7 years
类型 internet

技术详情

分类 Payload
质量 305.00 kg
干质量 290.00 kg
总质量 305.00 kg
长度 0.20 m
直径 2.80 m
跨度 9.00 m
形状 Box + pan
制造商 SPXS
平台类型 Starlink
阶段状态 In Orbit
所有者/国家 SPXS/US

大型星座

Loading constellations...